TimeCST,TemperatureF,Dew PointF,Humidity,Sea Level PressureIn,VisibilityMPH,Wind Direction,Wind SpeedMPH,Gust SpeedMPH,PrecipitationIn,Events,Conditions,WindDirDegrees,DateUTC
12:53 AM,52.0,48.9,89,30.15,10.0,East,16.1,27.6,0.00,,Overcast,90,2013-01-10 06:53:00
1:53 AM,53.1,48.9,86,30.16,10.0,East,12.7,23.0,N/A,,Overcast,90,2013-01-10 07:53:00
2:30 AM,53.6,48.2,82,30.13,10.0,East,18.4,25.3,N/A,,Overcast,90,2013-01-10 08:30:00
2:53 AM,53.1,48.9,86,30.12,10.0,East,16.1,21.9,N/A,,Overcast,90,2013-01-10 08:53:00
3:53 AM,53.1,48.9,86,30.09,10.0,East,13.8,23.0,N/A,,Overcast,90,2013-01-10 09:53:00
4:53 AM,52.0,48.9,89,30.06,6.0,East,12.7,-,0.00,Rain,Light Rain,90,2013-01-10 10:53:00
5:53 AM,52.0,48.9,89,30.04,9.0,East,11.5,-,0.00,,Overcast,80,2013-01-10 11:53:00
6:53 AM,52.0,48.9,89,30.02,10.0,East,11.5,-,N/A,,Overcast,80,2013-01-10 12:53:00
7:48 AM,51.8,50.0,94,30.02,2.5,East,11.5,-,0.01,Rain,Light Rain,90,2013-01-10 13:48:00
7:53 AM,52.0,50.0,93,30.01,2.5,East,11.5,-,0.01,Rain,Light Rain,80,2013-01-10 13:53:00
8:34 AM,53.6,50.0,88,30.02,10.0,East,12.7,21.9,0.00,,Overcast,90,2013-01-10 14:34:00
8:53 AM,53.1,50.0,89,30.01,6.0,East,16.1,20.7,0.00,,Overcast,90,2013-01-10 14:53:00
9:53 AM,53.1,51.1,93,29.99,7.0,East,10.4,-,N/A,,Overcast,90,2013-01-10 15:53:00
10:53 AM,55.0,52.0,89,29.96,9.0,East,11.5,-,N/A,,Overcast,90,2013-01-10 16:53:00
11:34 AM,57.2,53.6,88,29.93,10.0,East,12.7,-,N/A,,Overcast,90,2013-01-10 17:34:00
11:53 AM,57.9,54.0,87,29.91,10.0,East,13.8,-,N/A,,Overcast,80,2013-01-10 17:53:00
12:53 PM,59.0,54.0,83,29.88,10.0,East,11.5,-,N/A,,Overcast,80,2013-01-10 18:53:00
1:48 PM,59.0,55.4,88,29.84,10.0,East,4.6,-,0.01,,Overcast,80,2013-01-10 19:48:00
1:49 PM,59.0,55.9,90,29.84,10.0,East,4.6,-,0.01,,Overcast,80,2013-01-10 19:49:00
2:22 PM,60.8,55.4,82,29.84,10.0,East,3.5,-,0.00,Rain,Light Rain,90,2013-01-10 20:22:00
2:45 PM,59.0,55.4,88,29.85,5.0,West,3.5,-,0.02,Rain,Light Rain,260,2013-01-10 20:45:00
2:53 PM,59.0,55.9,90,29.84,9.0,Calm,Calm,-,0.02,Rain,Light Rain,0,2013-01-10 20:53:00
3:09 PM,59.0,55.4,88,29.84,10.0,Calm,Calm,-,0.00,,Overcast,0,2013-01-10 21:09:00
3:17 PM,59.0,57.2,94,29.84,10.0,East,3.5,-,0.00,,Overcast,90,2013-01-10 21:17:00
3:53 PM,61.0,57.0,87,29.84,10.0,East,3.5,-,0.00,,Overcast,90,2013-01-10 21:53:00
4:53 PM,59.0,55.9,90,29.84,10.0,NW,3.5,-,N/A,,Overcast,310,2013-01-10 22:53:00
5:12 PM,59.0,55.4,88,29.86,8.0,SW,6.9,-,0.02,Rain,Light Rain,220,2013-01-10 23:12:00
5:26 PM,59.0,55.4,88,29.86,10.0,SW,5.8,-,0.02,,Overcast,220,2013-01-10 23:26:00
5:53 PM,59.0,52.0,78,29.87,10.0,WSW,11.5,-,0.02,,Overcast,240,2013-01-10 23:53:00
6:53 PM,57.0,48.0,72,29.88,10.0,SW,8.1,-,N/A,,Partly Cloudy,230,2013-01-11 00:53:00
7:53 PM,55.9,46.0,69,29.89,10.0,SW,10.4,-,N/A,,Mostly Cloudy,220,2013-01-11 01:53:00
8:53 PM,55.0,46.0,72,29.91,10.0,SSW,5.8,-,N/A,,Overcast,200,2013-01-11 02:53:00
9:53 PM,51.1,45.0,80,29.91,10.0,SSW,5.8,-,N/A,,Clear,210,2013-01-11 03:53:00
10:53 PM,48.9,44.1,83,29.91,10.0,Calm,Calm,-,N/A,,Clear,0,2013-01-11 04:53:00